Chehalis, WA
on Friday, January 25, 2013

Friday
Previous Day Next Day
Daily Summary
 ActualAverage (KOLM)Record (KOLM)
Temperature
Mean Temperature °F / °C 40°F / 4°C  
Max Temperature 53°F / 12°C 47°F / 8°C 57°F / 13°C (2003)
Min Temperature 32°F / 0°C 34°F / 1°C 2°F / -16°C (1950)
Degree Days
Heating Degree Days 22 25  
Month to date heating degree days 635  
Since 1 July heating degree days 2905  
Cooling Degree Days 0 0  
Month to date cooling degree days 0  
Year to date cooling degree days 0  
Moisture
Dew Point 40°F / 4°C   
Average Humidity 91    
Maximum Humidity 100    
Minimum Humidity 72    
Precipitation
Precipitation 0.03 in / 0.76 cm 0.23 in / 5.84 cm 2.11 in / 5.36 cm (1971)
Month to date precipitation 6.44  
Year to date precipitation 6.44  
Wind
Wind Speed 6 mph / 10 km/h   
Max Wind Speed 12 mph / 19 km/h   
Max Gust Speed 17 mph / 27 km/h   
Visibility 8 miles / 13 kilometers   
Events Rain   

Key: T is trace of precipitation, MM is missing value
Source: NWS Daily Summary
Time(PST)TemperatureDew PointHumidity Pressure Visibility Wind DirectionWind SpeedGust SpeedPrecipitationEvents Conditions
12:15 AM 44.6°F / 7.0°C 41.0°F / 5.0°C 87% 30.09 in / 1018.8 hPa 10.0 miles / 16.1 kilometers SSE 6.9 mph / 11.1 km/h - N/A   Overcast
12:55 AM 44.6°F / 7.0°C 41.0°F / 5.0°C 87% 30.08 in / 1018.5 hPa 9.0 miles / 14.5 kilometers South 10.4 mph / 16.7 km/h - 0.03 in / 0.8 cm Rain Light Rain
1:15 AM 44.6°F / 7.0°C 41.0°F / 5.0°C 87% 30.08 in / 1018.5 hPa 10.0 miles / 16.1 kilometers South 11.5 mph / 18.5 km/h 16.1 mph / 25.9 km/h N/A Rain Light Rain
1:35 AM 44.6°F / 7.0°C 41.0°F / 5.0°C 87% 30.08 in / 1018.5 hPa 10.0 miles / 16.1 kilometers South 9.2 mph / 14.8 km/h 16.1 mph / 25.9 km/h N/A   Overcast
1:55 AM 44.6°F / 7.0°C 41.0°F / 5.0°C 87% 30.08 in / 1018.5 hPa 10.0 miles / 16.1 kilometers South 10.4 mph / 16.7 km/h 17.3 mph / 27.8 km/h N/A   Scattered Clouds
2:15 AM 44.6°F / 7.0°C 41.0°F / 5.0°C 87% 30.09 in / 1018.8 hPa 10.0 miles / 16.1 kilometers South 9.2 mph / 14.8 km/h - N/A   Mostly Cloudy
2:55 AM 44.6°F / 7.0°C 41.0°F / 5.0°C 87% 30.09 in / 1018.8 hPa 10.0 miles / 16.1 kilometers South 8.1 mph / 13.0 km/h - N/A   Overcast
3:15 AM 44.6°F / 7.0°C 41.0°F / 5.0°C 87% 30.08 in / 1018.5 hPa 10.0 miles / 16.1 kilometers South 9.2 mph / 14.8 km/h - N/A   Overcast
3:35 AM 44.6°F / 7.0°C 41.0°F / 5.0°C 87% 30.08 in / 1018.5 hPa 10.0 miles / 16.1 kilometers South 9.2 mph / 14.8 km/h - N/A   Mostly Cloudy
3:55 AM 44.6°F / 7.0°C 41.0°F / 5.0°C 87% 30.08 in / 1018.5 hPa 10.0 miles / 16.1 kilometers South 9.2 mph / 14.8 km/h - N/A   Overcast
4:15 AM 44.6°F / 7.0°C 41.0°F / 5.0°C 87% 30.07 in / 1018.2 hPa 10.0 miles / 16.1 kilometers South 8.1 mph / 13.0 km/h - N/A   Overcast
4:35 AM 44.6°F / 7.0°C 41.0°F / 5.0°C 87% 30.07 in / 1018.2 hPa 10.0 miles / 16.1 kilometers South 8.1 mph / 13.0 km/h - N/A   Overcast
4:55 AM 44.6°F / 7.0°C 41.0°F / 5.0°C 87% 30.07 in / 1018.2 hPa 10.0 miles / 16.1 kilometers South 5.8 mph / 9.3 km/h - N/A   Mostly Cloudy
5:15 AM 44.6°F / 7.0°C 41.0°F / 5.0°C 87% 30.07 in / 1018.2 hPa 10.0 miles / 16.1 kilometers SSW 6.9 mph / 11.1 km/h - N/A   Mostly Cloudy
5:35 AM 44.6°F / 7.0°C 42.8°F / 6.0°C 93% 30.07 in / 1018.2 hPa 10.0 miles / 16.1 kilometers SSW 5.8 mph / 9.3 km/h - N/A   Overcast
5:55 AM 44.6°F / 7.0°C 42.8°F / 6.0°C 93% 30.07 in / 1018.2 hPa 8.0 miles / 12.9 kilometers SSW 5.8 mph / 9.3 km/h - N/A Rain Light Rain
6:15 AM 44.6°F / 7.0°C 42.8°F / 6.0°C 93% 30.07 in / 1018.2 hPa 7.0 miles / 11.3 kilometers SSW 6.9 mph / 11.1 km/h - N/A Rain Light Rain
6:35 AM 44.6°F / 7.0°C 42.8°F / 6.0°C 93% 30.07 in / 1018.2 hPa 5.0 miles / 8.0 kilometers SSW 6.9 mph / 11.1 km/h - N/A   Overcast
6:55 AM 44.6°F / 7.0°C 42.8°F / 6.0°C 93% 30.07 in / 1018.2 hPa 7.0 miles / 11.3 kilometers South 6.9 mph / 11.1 km/h - N/A   Overcast
7:15 AM 42.8°F / 6.0°C 41.0°F / 5.0°C 93% 30.07 in / 1018.2 hPa 5.0 miles / 8.0 kilometers South 5.8 mph / 9.3 km/h - N/A   Overcast
7:35 AM 41.0°F / 5.0°C 41.0°F / 5.0°C 100% 30.06 in / 1017.8 hPa 4.0 miles / 6.4 kilometers South 5.8 mph / 9.3 km/h - N/A   Scattered Clouds
7:55 AM 41.0°F / 5.0°C 41.0°F / 5.0°C 100% 30.06 in / 1017.8 hPa 3.0 miles / 4.8 kilometers Calm Calm - N/A   Clear
8:15 AM 41.0°F / 5.0°C 39.2°F / 4.0°C 93% 30.06 in / 1017.8 hPa 1.8 miles / 2.8 kilometers SSW 3.5 mph / 5.6 km/h - N/A   Clear
8:35 AM 39.2°F / 4.0°C 39.2°F / 4.0°C 100% 30.06 in / 1017.8 hPa 1.2 miles / 2.0 kilometers Calm Calm - N/A   Clear
8:55 AM 39.2°F / 4.0°C 39.2°F / 4.0°C 100% 30.06 in / 1017.8 hPa 2.0 miles / 3.2 kilometers Calm Calm - N/A   Scattered Clouds
9:15 AM 39.2°F / 4.0°C 39.2°F / 4.0°C 100% 30.06 in / 1017.8 hPa 1.8 miles / 2.8 kilometers Calm Calm - N/A   Mostly Cloudy
9:35 AM 41.0°F / 5.0°C 39.2°F / 4.0°C 93% 30.07 in / 1018.2 hPa 4.0 miles / 6.4 kilometers SW 3.5 mph / 5.6 km/h - N/A   Partly Cloudy
9:55 AM 39.2°F / 4.0°C 39.2°F / 4.0°C 100% 30.07 in / 1018.2 hPa 2.5 miles / 4.0 kilometers SW 3.5 mph / 5.6 km/h - N/A   Partly Cloudy
10:15 AM 44.6°F / 7.0°C 44.6°F / 7.0°C 100% 30.07 in / 1018.2 hPa 4.0 miles / 6.4 kilometers SSW 4.6 mph / 7.4 km/h - N/A   Scattered Clouds
10:35 AM 44.6°F / 7.0°C 44.6°F / 7.0°C 100% 30.07 in / 1018.2 hPa 4.0 miles / 6.4 kilometers SW 3.5 mph / 5.6 km/h - N/A   Scattered Clouds
10:55 AM 46.4°F / 8.0°C 44.6°F / 7.0°C 93% 30.06 in / 1017.8 hPa 5.0 miles / 8.0 kilometers South 4.6 mph / 7.4 km/h - N/A   Clear
11:15 AM 48.2°F / 9.0°C 46.4°F / 8.0°C 93% 30.06 in / 1017.8 hPa 5.0 miles / 8.0 kilometers SSE 6.9 mph / 11.1 km/h - N/A   Mostly Cloudy
11:35 AM 50.0°F / 10.0°C 46.4°F / 8.0°C 87% 30.05 in / 1017.5 hPa 10.0 miles / 16.1 kilometers South 5.8 mph / 9.3 km/h - N/A   Mostly Cloudy
11:55 AM 48.2°F / 9.0°C 46.4°F / 8.0°C 93% 30.04 in / 1017.2 hPa 5.0 miles / 8.0 kilometers South 5.8 mph / 9.3 km/h - N/A   Mostly Cloudy
12:15 PM 50.0°F / 10.0°C 44.6°F / 7.0°C 82% 30.03 in / 1016.8 hPa 9.0 miles / 14.5 kilometers South 3.5 mph / 5.6 km/h - N/A   Overcast
12:35 PM 50.0°F / 10.0°C 44.6°F / 7.0°C 82% 30.02 in / 1016.5 hPa 5.0 miles / 8.0 kilometers SSE 4.6 mph / 7.4 km/h - N/A   Haze
12:55 PM 50.0°F / 10.0°C 46.4°F / 8.0°C 87% 30.02 in / 1016.5 hPa 5.0 miles / 8.0 kilometers SSE 6.9 mph / 11.1 km/h - N/A   Haze
1:15 PM 51.8°F / 11.0°C 46.4°F / 8.0°C 82% 30.01 in / 1016.1 hPa 5.0 miles / 8.0 kilometers SSE 3.5 mph / 5.6 km/h - N/A   Haze
1:55 PM 51.8°F / 11.0°C 46.4°F / 8.0°C 82% 30.00 in / 1015.8 hPa 10.0 miles / 16.1 kilometers ESE 3.5 mph / 5.6 km/h - N/A   Scattered Clouds
2:15 PM 53.6°F / 12.0°C 44.6°F / 7.0°C 72% 29.99 in / 1015.5 hPa 10.0 miles / 16.1 kilometers SSE 3.5 mph / 5.6 km/h - N/A   Mostly Cloudy
2:55 PM 50.0°F / 10.0°C 46.4°F / 8.0°C 87% 29.99 in / 1015.5 hPa 10.0 miles / 16.1 kilometers South 6.9 mph / 11.1 km/h - N/A   Mostly Cloudy
3:15 PM 50.0°F / 10.0°C 44.6°F / 7.0°C 82% 29.98 in / 1015.1 hPa 10.0 miles / 16.1 kilometers South 5.8 mph / 9.3 km/h - N/A   Partly Cloudy
3:35 PM 50.0°F / 10.0°C 44.6°F / 7.0°C 82% 29.98 in / 1015.1 hPa 10.0 miles / 16.1 kilometers South 4.6 mph / 7.4 km/h - N/A   Partly Cloudy
3:55 PM 50.0°F / 10.0°C 46.4°F / 8.0°C 87% 29.98 in / 1015.1 hPa 5.0 miles / 8.0 kilometers South 4.6 mph / 7.4 km/h - N/A   Haze
4:15 PM 50.0°F / 10.0°C 44.6°F / 7.0°C 82% 29.98 in / 1015.1 hPa 10.0 miles / 16.1 kilometers Calm Calm - N/A   Clear
4:35 PM 50.0°F / 10.0°C 44.6°F / 7.0°C 82% 29.98 in / 1015.1 hPa 10.0 miles / 16.1 kilometers Calm Calm - N/A   Clear
4:55 PM 48.2°F / 9.0°C 44.6°F / 7.0°C 87% 29.99 in / 1015.5 hPa 10.0 miles / 16.1 kilometers Calm Calm - N/A   Scattered Clouds
5:15 PM 46.4°F / 8.0°C 41.0°F / 5.0°C 81% 29.99 in / 1015.5 hPa 10.0 miles / 16.1 kilometers SW 3.5 mph / 5.6 km/h - N/A   Partly Cloudy
5:55 PM 41.0°F / 5.0°C 39.2°F / 4.0°C 93% 29.99 in / 1015.5 hPa 10.0 miles / 16.1 kilometers Calm Calm - N/A   Clear
6:15 PM 41.0°F / 5.0°C 39.2°F / 4.0°C 93% 29.98 in / 1015.1 hPa 10.0 miles / 16.1 kilometers Calm Calm - N/A   Clear
6:35 PM 39.2°F / 4.0°C 37.4°F / 3.0°C 93% 29.98 in / 1015.1 hPa 10.0 miles / 16.1 kilometers West 3.5 mph / 5.6 km/h - N/A   Clear
6:55 PM 39.2°F / 4.0°C 37.4°F / 3.0°C 93% 29.98 in / 1015.1 hPa 9.0 miles / 14.5 kilometers SW 4.6 mph / 7.4 km/h - N/A   Clear
7:15 PM 41.0°F / 5.0°C 37.4°F / 3.0°C 87% 29.98 in / 1015.1 hPa 9.0 miles / 14.5 kilometers SSW 4.6 mph / 7.4 km/h - N/A   Clear
7:35 PM 39.2°F / 4.0°C 35.6°F / 2.0°C 87% 29.97 in / 1014.8 hPa 10.0 miles / 16.1 kilometers NE 3.5 mph / 5.6 km/h - N/A   Clear
7:55 PM 37.4°F / 3.0°C 35.6°F / 2.0°C 93% 29.97 in / 1014.8 hPa 10.0 miles / 16.1 kilometers Calm Calm - N/A   Clear
8:15 PM 35.6°F / 2.0°C 35.6°F / 2.0°C 100% 29.97 in / 1014.8 hPa 10.0 miles / 16.1 kilometers Calm Calm - N/A   Clear
8:35 PM 35.6°F / 2.0°C 33.8°F / 1.0°C 93% 29.97 in / 1014.8 hPa 7.0 miles / 11.3 kilometers Calm Calm - N/A   Clear
8:55 PM 33.8°F / 1.0°C 32.0°F / 0.0°C 93% 29.97 in / 1014.8 hPa 7.0 miles / 11.3 kilometers Calm Calm - N/A   Clear
9:15 PM 33.8°F / 1.0°C 32.0°F / 0.0°C 93% 29.97 in / 1014.8 hPa 10.0 miles / 16.1 kilometers Calm Calm - N/A   Scattered Clouds
9:35 PM 33.8°F / 1.0°C 32.0°F / 0.0°C 93% 29.97 in / 1014.8 hPa 9.0 miles / 14.5 kilometers Calm Calm - N/A   Mostly Cloudy
9:55 PM 33.8°F / 1.0°C 32.0°F / 0.0°C 93% 29.96 in / 1014.4 hPa 6.0 miles / 9.7 kilometers South 3.5 mph / 5.6 km/h - N/A   Scattered Clouds
10:15 PM 32.0°F / 0.0°C 32.0°F / 0.0°C 100% 29.96 in / 1014.4 hPa 5.0 miles / 8.0 kilometers SW 3.5 mph / 5.6 km/h - N/A   Overcast
10:35 PM 32.0°F / 0.0°C 32.0°F / 0.0°C 100% 29.96 in / 1014.4 hPa 8.0 miles / 12.9 kilometers WSW 4.6 mph / 7.4 km/h - N/A   Mostly Cloudy
10:55 PM 32.0°F / 0.0°C 32.0°F / 0.0°C 100% 29.96 in / 1014.4 hPa 10.0 miles / 16.1 kilometers SSW 3.5 mph / 5.6 km/h - N/A   Clear
11:15 PM 32.0°F / 0.0°C 32.0°F / 0.0°C 100% 29.97 in / 1014.8 hPa 9.0 miles / 14.5 kilometers Calm Calm - N/A   Mostly Cloudy
11:35 PM 32.0°F / 0.0°C 32.0°F / 0.0°C 100% 29.96 in / 1014.4 hPa 10.0 miles / 16.1 kilometers South 3.5 mph / 5.6 km/h - N/A   Mostly Cloudy
11:55 PM 32.0°F / 0.0°C 32.0°F / 0.0°C 100% 29.95 in / 1014.1 hPa 10.0 miles / 16.1 kilometers Calm Calm - N/A   Mostly Cloudy
Moon Phase
Jan. 25 Jan. 26 Feb. 03 Feb. 10 Feb. 17
Sunrise:07:43 AM (PST) Moon Rise:04:08 PM (PST)1/25
Sunset:05:05 PM (PST) Moon Set:06:27 AM (PST)1/25

Copyright © 2014 The Weather Underground, Inc.